FW9597 Weather Reports


Display with metric or nautical units.
time (UTC)temp
F
wind
direction
speed
MPH
gust
MPH
rain 1hr
in
rain 24hr
in
rain mn
in
humidity
%
barometer
mb
20220627061035 69 0.0 0.0 0.00 0.00 0.00 37 1027.0
20220627060027 69 0.0 0.0 0.00 0.00 0.00 36 1027.0
20220627055022 69 0.0 0.0 0.00 0.00 0.00 35 1027.1
20220627054027 70 0.0 0.0 0.00 0.00 0.00 33 1027.0
20220627053019 71 0.0 0.0 0.00 0.00 0.00 32 1026.9
20220627052022 72 0.0 0.0 0.00 0.00 0.00 29 1026.8
20220627051020 73 0.0 0.0 0.00 0.00 0.00 29 1026.8
20220627050032 74 0.0 0.0 0.00 0.00 0.00 28 1026.8
20220627045029 75 0.0 0.0 0.00 0.00 0.00 28 1026.7
20220627044023 76 0.0 0.0 0.00 0.00 0.00 26 1026.7
20220627043029 77 0.0 0.0 0.00 0.00 0.00 25 1026.6
20220627042019 76 0.0 0.0 0.00 0.00 0.00 27 1026.5
20220627041031 75 0.0 0.0 0.00 0.00 0.00 29 1026.3
20220627040028 76 0.0 0.0 0.00 0.00 0.00 27 1026.1
20220627035021 77 0.0 0.0 0.00 0.00 0.00 27 1025.9
20220627034036 78 0.0 0.0 0.00 0.00 0.00 25 1025.8
20220627033030 79 0.0 0.0 0.00 0.00 0.00 25 1025.7
20220627032029 80 0.0 0.0 0.00 0.00 0.00 25 1025.6
20220627031021 81 0.0 0.0 0.00 0.00 0.00 24 1025.6
20220627030030 82 0.0 0.0 0.00 0.00 0.00 23 1025.6
20220627025023 84 0.0 0.0 0.00 0.00 0.00 21 1025.4
20220627024029 86 0.0 0.0 0.00 0.00 0.00 20 1025.3
20220627023026 88 0.0 0.0 0.00 0.00 0.00 19 1025.4
20220627022024 89 0.0 0.0 0.00 0.00 0.00 18 1025.4
20220627021019 89 0.0 0.0 0.00 0.00 0.00 18 1025.3
20220627020023 89 0.0 0.0 0.00 0.00 0.00 18 1025.3
20220627015024 89 0.0 0.0 0.00 0.00 0.00 18 1025.2
20220627014019 90 0.0 0.0 0.00 0.00 0.00 18 1025.2
20220627013035 90 0.0 0.0 0.00 0.00 0.00 17 1025.2
20220627012023 90 0.0 0.0 0.00 0.00 0.00 17 1025.2
20220627011035 91 0.0 0.0 0.00 0.00 0.00 17 1025.1
20220627010033 91 0.0 0.0 0.00 0.00 0.00 17 1025.1
20220627005025 92 0.0 0.0 0.00 0.00 0.00 17 1025.0
20220627004035 92 0.0 0.0 0.00 0.00 0.00 17 1025.0
20220627003024 92 0.0 4.0 0.00 0.00 0.00 18 1025.0
20220627002033 93 0.0 0.0 0.00 0.00 0.00 18 1025.0
20220627001026 92 23 0.0 1.0 0.00 0.00 0.00 18 1025.1
20220627000020 92 0.0 1.0 0.00 0.00 0.00 18 1025.1
20220626235029 92 293 0.0 3.0 0.00 0.00 0.00 16 1025.2
20220626234023 92 0.0 0.0 0.00 0.00 0.00 16 1025.2
20220626233026 92 0.0 0.0 0.00 0.00 0.00 17 1025.3
20220626232029 92 0.0 1.0 0.00 0.00 0.00 17 1025.3
20220626231026 93 68 0.0 2.0 0.00 0.00 0.00 17 1025.2
20220626230025 93 0.0 1.0 0.00 0.00 0.00 17 1025.3
20220626225036 92 23 1.0 7.0 0.00 0.00 0.00 18 1025.3
20220626224028 93 0.0 1.0 0.00 0.00 0.00 19 1025.4
20220626223022 92 73 0.0 6.0 0.00 0.00 0.00 18 1025.4
20220626222027 93 45 0.0 2.0 0.00 0.00 0.00 18 1025.5
20220626221019 93 90 0.0 2.0 0.00 0.00 0.00 18 1025.6
20220626220035 93 32 2.0 11.0 0.00 0.00 0.00 18 1025.8
20220626215028 93 0.0 1.0 0.00 0.00 0.00 18 1025.8
20220626214025 93 285 0.0 2.0 0.00 0.00 0.00 19 1025.9
20220626213024 93 0.0 3.0 0.00 0.00 0.00 19 1026.0
20220626212030 94 0.0 0.0 0.00 0.00 0.00 19 1026.0
20220626211028 93 0.0 0.0 0.00 0.00 0.00 19 1026.0
20220626210020 94 0.0 2.0 0.00 0.00 0.00 18 1026.2
20220626205036 94 0.0 0.0 0.00 0.00 0.00 18 1026.3
20220626204029 94 0.0 0.0 0.00 0.00 0.00 19 1026.3
20220626203022 93 0.0 0.0 0.00 0.00 0.00 19 1026.5
20220626202035 94 0.0 0.0 0.00 0.00 0.00 20 1026.6
20220626201030 93 0.0 0.0 0.00 0.00 0.00 18 1026.8
20220626200028 92 0.0 0.0 0.00 0.00 0.00 19 1026.9
20220626195022 92 0.0 0.0 0.00 0.00 0.00 19 1027.1
20220626194026 92 0.0 0.0 0.00 0.00 0.00 20 1027.3
20220626193023 92 0.0 0.0 0.00 0.00 0.00 19 1027.4
20220626192034 91 0.0 0.0 0.00 0.00 0.00 20 1027.5
20220626191033 90 0.0 0.0 0.00 0.00 0.00 20 1027.6
20220626190024 91 0.0 0.0 0.00 0.00 0.00 20 1027.6
20220626185030 90 0.0 0.0 0.00 0.00 0.00 21 1027.8
20220626184021 89 0.0 0.0 0.00 0.00 0.00 22 1027.9
20220626183020 89 0.0 0.0 0.00 0.00 0.00 23 1027.9
20220626182030 87 0.0 0.0 0.00 0.00 0.00 25 1027.9
20220626181022 88 0.0 0.0 0.00 0.00 0.00 25 1028.0
20220626180019 87 0.0 0.0 0.00 0.00 0.00 25 1028.2
20220626175032 87 0.0 0.0 0.00 0.00 0.00 24 1028.3
20220626174030 87 0.0 0.0 0.00 0.00 0.00 25 1028.3
20220626173021 86 0.0 0.0 0.00 0.00 0.00 26 1028.4
20220626172031 85 0.0 0.0 0.00 0.00 0.00 26 1028.4
20220626171018 85 0.0 0.0 0.00 0.00 0.00 25 1028.4
20220626170034 84 0.0 0.0 0.00 0.00 0.00 26 1028.4
20220626165022 81 0.0 0.0 0.00 0.00 0.00 30 1028.5
20220626164034 82 0.0 0.0 0.00 0.00 0.00 28 1028.5
20220626163033 81 0.0 0.0 0.00 0.00 0.00 28 1028.5
20220626162025 80 0.0 0.0 0.00 0.00 0.00 29 1028.5
20220626161023 79 0.0 0.0 0.00 0.00 0.00 31 1028.6
20220626160033 79 0.0 0.0 0.00 0.00 0.00 31 1028.6
20220626155024 79 0.0 0.0 0.00 0.00 0.00 32 1028.8
20220626154021 82 0.0 0.0 0.00 0.00 0.00 30 1028.8
20220626153035 80 0.0 0.0 0.00 0.00 0.00 31 1028.8
20220626152030 81 0.0 0.0 0.00 0.00 0.00 30 1028.8
20220626151023 79 0.0 0.0 0.00 0.00 0.00 31 1028.8
20220626150033 77 0.0 0.0 0.00 0.00 0.00 34 1028.6
20220626145023 77 0.0 0.0 0.00 0.00 0.00 37 1028.5
20220626144028 76 0.0 0.0 0.00 0.00 0.00 38 1028.4
20220626143027 73 0.0 0.0 0.00 0.00 0.00 41 1028.4
20220626142024 70 0.0 0.0 0.00 0.00 0.00 42 1028.4
20220626141020 68 0.0 0.0 0.00 0.00 0.00 45 1028.3
20220626140024 66 0.0 0.0 0.00 0.00 0.00 48 1028.3
20220626135022 63 0.0 0.0 0.00 0.00 0.00 53 1028.2
20220626134031 60 0.0 0.0 0.00 0.00 0.00 57 1028.0
20220626133024 58 0.0 0.0 0.00 0.00 0.00 60 1028.0
20220626132033 57 0.0 0.0 0.00 0.00 0.00 61 1028.0
20220626131025 56 0.0 0.0 0.00 0.00 0.00 61 1027.8
20220626130022 54 0.0 0.0 0.00 0.00 0.00 62 1027.8
20220626125024 54 0.0 0.0 0.00 0.00 0.00 62 1027.6
20220626124022 54 0.0 0.0 0.00 0.00 0.00 62 1027.7
20220626123032 54 0.0 0.0 0.00 0.00 0.00 61 1027.6
20220626122025 54 0.0 0.0 0.00 0.00 0.00 61 1027.6
20220626121035 55 0.0 0.0 0.00 0.00 0.00 61 1027.3
20220626120027 55 0.0 0.0 0.00 0.00 0.00 60 1027.3
20220626115023 55 0.0 0.0 0.00 0.00 0.00 57 1027.3
20220626114027 56 0.0 0.0 0.00 0.00 0.00 56 1027.3
20220626113018 56 0.0 0.0 0.00 0.00 0.00 56 1027.1
20220626112035 56 0.0 0.0 0.00 0.00 0.00 56 1027.1
20220626111027 56 0.0 0.0 0.00 0.00 0.00 54 1027.1
20220626110018 57 0.0 0.0 0.00 0.00 0.00 54 1027.0
20220626105030 57 0.0 0.0 0.00 0.00 0.00 52 1027.0
20220626104024 57 0.0 0.0 0.00 0.00 0.00 52 1026.9
20220626103029 57 0.0 0.0 0.00 0.00 0.00 53 1026.9
20220626102019 57 0.0 0.0 0.00 0.00 0.00 54 1026.8
20220626101023 57 0.0 0.0 0.00 0.00 0.00 52 1026.8
20220626100020 58 0.0 0.0 0.00 0.00 0.00 49 1026.8
20220626095025 59 0.0 0.0 0.00 0.00 0.00 46 1026.8
20220626094019 60 0.0 0.0 0.00 0.00 0.00 44 1026.7
20220626093031 60 0.0 0.0 0.00 0.00 0.00 43 1026.7
20220626092029 60 0.0 0.0 0.00 0.00 0.00 44 1026.7
20220626091021 60 0.0 0.0 0.00 0.00 0.00 44 1026.7
20220626090030 60 0.0 0.0 0.00 0.00 0.00 45 1026.7
20220626085022 60 0.0 0.0 0.00 0.00 0.00 45 1026.7
20220626084027 60 0.0 0.0 0.00 0.00 0.00 49 1026.7
20220626083025 59 0.0 0.0 0.00 0.00 0.00 52 1026.7
20220626082023 59 0.0 0.0 0.00 0.00 0.00 51 1026.7
20220626081029 60 0.0 0.0 0.00 0.00 0.00 47 1026.7
20220626080021 60 0.0 0.0 0.00 0.00 0.00 47 1026.7
20220626075019 61 0.0 0.0 0.00 0.00 0.00 48 1026.5
20220626074030 61 0.0 0.0 0.00 0.00 0.00 49 1026.3
20220626073021 61 0.0 0.0 0.00 0.00 0.00 46 1026.2
20220626072032 62 0.0 0.0 0.00 0.00 0.00 46 1026.2
20220626071025 62 0.0 0.0 0.00 0.00 0.00 46 1026.2
20220626070018 63 0.0 0.0 0.00 0.00 0.00 45 1026.1
20220626065022 64 0.0 0.0 0.00 0.00 0.00 42 1026.1
20220626064020 65 0.0 0.0 0.00 0.00 0.00 41 1026.1
20220626063031 65 0.0 0.0 0.00 0.00 0.00 41 1026.0
20220626062030 66 0.0 0.0 0.00 0.00 0.00 40 1026.0